Weather History for Beaufort MCAS, SC

Change the Weather History Date:

Tuesday, November 22, 2011

  Actual Average Record
Temperature  
Mean Temperature 66 °F -  
Max Temperature 78 °F 66 °F 83 °F (1942)
Min Temperature 55 °F 45 °F 24 °F (1937)
Cooling Degree Days 2    
Growing Degree Days 16 (Base 50)    
Moisture  
Dew Point 58 °F    
Average Humidity 87    
Maximum Humidity 100    
Minimum Humidity 60    
Precipitation  
Precipitation 0.00 in - - ()
Sea Level Pressure  
Sea Level Pressure 30.15 in    
Wind  
Wind Speed 2 mph (SE)    
Max Wind Speed 14 mph    
Max Gust Speed 23 mph    
Visibility 5 miles    
Events Fog    
Averages and records for this station are not official NWS values.
T = Trace of Precipitation, MM = Missing Value Source: NWS Daily Summary

Daily Weather History Graph

Daily Weather History Graph

Search for Another Location

Airport:

Trip Planner

Search our weather history database for the weather conditions in past years. The results will help you decide how hot, cold, wet, or windy it might be!

Date:

Astronomy

Nov. 22, 2011 Rise Set
Actual Time 6:58 AM EST 5:19 PM EST
Civil Twilight 6:32 AM EST 5:45 PM EST
Nautical Twilight 6:02 AM EST 6:15 PM EST
Astronomical Twilight 5:32 AM EST 6:44 PM EST
Moon 3:54 AM EST (11/22) 3:12 PM EST (11/22)
Length of Visible Light 11h 13m
Length of Day
10h 20m
Waning Crescent, 9% of the Moon is Illuminated
Nov 22
Waning Crescent
Nov 25
New
Dec 2
First Quarter
Dec 10
Full
Dec 17
Last Quarter

Hourly Weather History & Observations

Time (EST) Temp. Dew Point Humidity Pressure Visibility Wind Dir Wind Speed Gust Speed Precip Events Conditions
12:56 AM 61.0 °F 57.9 °F 90% 30.18 in 10.0 mi Calm Calm - N/A   Clear
1:56 AM 60.1 °F 57.0 °F 90% 30.17 in 10.0 mi Calm Calm - N/A   Clear
2:25 AM 57.2 °F 55.4 °F 94% 30.17 in 1.5 mi Calm Calm - N/A   Clear
2:29 AM 57.2 °F 55.4 °F 94% 30.17 in 0.8 mi Calm Calm - N/A   Clear
2:38 AM 57.2 °F 57.2 °F 100% 30.17 in 0.5 mi Calm Calm - N/A Fog Fog
2:45 AM 57.2 °F 55.4 °F 94% 30.17 in 0.2 mi Calm Calm - N/A Fog Fog
2:50 AM 57.2 °F 57.2 °F 100% 30.17 in 0.8 mi Calm Calm - N/A   Mist
2:53 AM 57.2 °F 57.2 °F 100% 30.17 in 1.2 mi Calm Calm - N/A   Partly Cloudy
2:56 AM 57.9 °F 55.9 °F 93% 30.18 in 5.0 mi Calm Calm - N/A   Partly Cloudy
3:56 AM 57.0 °F 55.0 °F 93% 30.18 in 10.0 mi Calm Calm - N/A   Clear
4:26 AM 57.2 °F 55.4 °F 94% 30.18 in 1.5 mi Calm Calm - N/A   Partly Cloudy
4:28 AM 55.4 °F 55.4 °F 100% 30.18 in 0.8 mi Calm Calm - N/A   Mist
4:30 AM 55.4 °F 55.4 °F 100% 30.18 in 0.5 mi Calm Calm - N/A Fog Fog
4:33 AM 57.2 °F 55.4 °F 94% 30.18 in 0.2 mi Calm Calm - N/A Fog Fog
4:39 AM 57.2 °F 55.4 °F 94% 30.18 in 0.8 mi Calm Calm - N/A   Mist
4:41 AM 57.2 °F 55.4 °F 94% 30.18 in 1.5 mi Calm Calm - N/A   Scattered Clouds
4:43 AM 57.2 °F 55.4 °F 94% 30.18 in 3.0 mi Calm Calm - N/A   Partly Cloudy
4:56 AM 57.0 °F 55.9 °F 96% 30.18 in 7.0 mi Calm Calm - N/A   Partly Cloudy
5:33 AM 55.4 °F 53.6 °F 94% 30.17 in 1.8 mi Calm Calm - N/A   Clear
5:41 AM 57.2 °F 55.4 °F 94% 30.18 in 3.0 mi Calm Calm - N/A   Clear
5:56 AM 55.9 °F 55.0 °F 97% 30.18 in 7.0 mi Calm Calm - N/A   Clear
6:03 AM 55.4 °F 55.4 °F 100% 30.18 in 1.5 mi Calm Calm - N/A   Clear
6:06 AM 55.4 °F 55.4 °F 100% 30.18 in 0.8 mi Calm Calm - N/A   Clear
6:15 AM 57.2 °F 55.4 °F 94% 30.18 in 2.5 mi Calm Calm - N/A   Clear
6:22 AM - - N/A% - - North - - N/A   Unknown
6:44 AM 57.2 °F 55.4 °F 94% 30.19 in 1.0 mi Calm Calm - N/A   Scattered Clouds
6:56 AM 55.0 °F 53.1 °F 93% 30.20 in 1.0 mi Calm Calm - N/A   Scattered Clouds
6:59 AM 55.4 °F 53.6 °F 94% 30.20 in 0.5 mi Calm Calm - N/A Fog Fog
7:06 AM 55.4 °F 55.4 °F 100% 30.20 in 1.0 mi Calm Calm - N/A   Scattered Clouds
7:53 AM 59.0 °F 57.2 °F 94% 30.22 in 4.0 mi Calm Calm - 0.00 in   Scattered Clouds
7:56 AM 59.0 °F 57.0 °F 93% 30.22 in 4.0 mi Calm Calm - 0.00 in   Scattered Clouds
8:56 AM 64.9 °F 61.0 °F 87% 30.23 in 10.0 mi Calm Calm - N/A   Scattered Clouds
9:56 AM 71.1 °F 63.0 °F 75% 30.22 in 10.0 mi ESE 4.6 mph - N/A   Scattered Clouds
10:56 AM 75.9 °F 63.0 °F 64% 30.20 in 10.0 mi SE 6.9 mph - N/A   Scattered Clouds
11:56 AM 78.1 °F 64.0 °F 62% 30.17 in 10.0 mi SE 6.9 mph - N/A   Scattered Clouds
12:56 PM 77.0 °F 64.0 °F 64% 30.14 in 10.0 mi ESE 9.2 mph - N/A   Partly Cloudy
1:56 PM 78.1 °F 63.0 °F 60% 30.11 in 10.0 mi ESE 8.1 mph 18.4 mph N/A   Scattered Clouds
2:56 PM 75.9 °F 63.0 °F 64% 30.09 in 10.0 mi ESE 10.4 mph - N/A   Scattered Clouds
3:56 PM 75.0 °F 62.1 °F 64% 30.09 in 10.0 mi ESE 8.1 mph - N/A   Scattered Clouds
4:56 PM 71.1 °F 62.1 °F 73% 30.08 in 10.0 mi SE 8.1 mph - N/A   Scattered Clouds
5:56 PM 69.1 °F 62.1 °F 78% 30.06 in 10.0 mi SE 6.9 mph - N/A   Clear
6:56 PM 69.1 °F 61.0 °F 75% 30.07 in 10.0 mi SE 5.8 mph - N/A   Clear
7:56 PM 69.1 °F 62.1 °F 78% 30.08 in 10.0 mi SE 5.8 mph - N/A   Partly Cloudy
8:56 PM 70.0 °F 63.0 °F 78% 30.07 in 10.0 mi SSE 5.8 mph - N/A   Clear
9:56 PM 70.0 °F 63.0 °F 78% 30.06 in 10.0 mi SSE 9.2 mph 17.3 mph N/A   Scattered Clouds
10:56 PM 70.0 °F 64.9 °F 84% 30.05 in 10.0 mi SSE 11.5 mph 20.7 mph N/A   Mostly Cloudy
11:18 PM 69.8 °F 64.4 °F 83% 30.04 in 10.0 mi SSE 9.2 mph - N/A   Scattered Clouds
11:56 PM 71.1 °F 64.9 °F 81% 30.04 in 10.0 mi SSE 13.8 mph 23.0 mph N/A   Scattered Clouds